#timestamp,LO_Frequency,Hit,StdDev 
1570935615.5,286047002.0,N
1570935635.3,286047003.9,Y
1570935655.2,286047002.8,P
1570935675.0,286046998.1,P
1570935675.9,286046998.1,N
1570935695.8,286046998.9,N
1570935715.6,286046998.9,N
1570935735.4,286047000.0,N
1570935755.3,286047000.4,N
1570935775.1,286047000.2,N
1570935795.8,286047002.6,N
1570935815.7,286047003.5,N
1570935835.5,286047002.6,N
1570935855.4,286047002.6,N
1570935875.2,286047002.6,N
1570935895.0,286046999.7,N
1570935895.9,286046999.7,N
1570935915.8,286047000.1,N
1570935935.6,286046998.8,N
1570935955.4,286046999.3,N
1570935975.3,286047001.1,N
1570935995.1,286047000.4,N
1570936015.9,286047000.4,N
1570936035.7,286047000.6,N
1570936055.5,286046998.6,N
1570936075.4,286047000.9,N
1570936095.2,286047001.4,N
1570936115.1,286047001.2,N
1570936116.0,286047001.2,N
1570936135.8,286046998.3,N
1570936155.6,286046996.5,N
1570936175.5,286046998.6,N
1570936195.3,286046998.1,N
1570936215.1,286046998.5,N
1570936235.9,286047001.0,N
1570936255.7,286046999.8,N
1570936275.6,286047000.0,N
1570936295.4,286047004.3,N
1570936315.2,286047001.6,N
1570936335.1,286047001.7,N
1570936336.0,286047001.7,N
1570936355.8,286047003.6,N
1570936375.6,286047003.4,N
1570936395.5,286047003.1,N
1570936415.3,286047001.7,N
1570936435.2,286047005.7,Y
1570936455.0,286047005.1,P
1570936455.9,286047005.1,N
1570936475.7,286047004.5,N
1570936495.6,286047005.9,Y
1570936515.4,286046999.7,P
1570936535.3,286047000.1,N
1570936555.1,286047002.8,N
1570936575.8,286047000.6,N
1570936595.7,286046999.3,N
1570936615.5,286047000.4,N
1570936635.4,286047000.7,N
1570936655.2,286047001.0,N
1570936675.0,286046998.4,N
1570936675.9,286046998.4,N
1570936695.8,286046998.5,N
1570936715.6,286046998.3,N
1570936735.4,286047001.8,N
1570936755.3,286047002.7,N
1570936775.1,286046998.6,N
1570936795.9,286046999.1,N
1570936815.7,286047001.2,N
1570936835.5,286046999.0,N
1570936855.4,286046997.9,N
1570936875.2,286046997.7,N
1570936895.1,286046999.2,N
1570936896.0,286046999.2,N
1570936915.8,286046998.2,N
1570936935.6,286046996.8,N
1570936955.5,286046993.6,Y
1570936975.3,286046997.1,P
1570936995.2,286046997.0,N
1570937015.9,286046995.1,P
1570937035.7,286046996.8,N
1570937055.6,286046998.3,N
1570937075.4,286046998.8,N
1570937095.2,286046998.9,N
1570937115.1,286047002.5,N
1570937116.0,286047002.5,N
1570937135.8,286047000.6,N
1570937155.7,286047004.1,N
1570937175.5,286046999.8,N
1570937195.3,286047001.1,N
1570937215.2,286047000.5,N
1570937235.0,286047000.4,N
1570937235.9,286047000.4,N
1570937255.7,286046998.7,N
1570937275.6,286046996.2,N
1570937295.4,286046993.4,N
1570937315.3,286046994.4,N
1570937335.1,286046994.7,N
1570937355.8,286046995.9,N
1570937375.7,286046995.3,N
1570937395.5,286046996.3,N
1570937415.4,286046994.5,N
1570937435.2,286046996.2,N
1570937455.0,286046995.5,N
1570937455.9,286046995.5,N
1570937475.8,286046994.0,N
1570937495.6,286046992.7,N
1570937515.5,286046990.1,Y
1570937535.3,286046993.7,P
1570937555.1,286046995.3,N
1570937575.9,286046995.2,P
1570937595.7,286046995.9,N
1570937615.5,286046997.5,N
1570937635.4,286046996.9,N
1570937655.2,286046996.8,N
1570937675.1,286046996.9,N
1570937676.0,286046996.9,N
1570937695.8,286046996.5,Y
1570937715.6,286047002.1,P
1570937735.5,286047000.1,N
1570937755.3,286046999.7,N
1570937775.1,286047002.6,N
1570937795.9,286047001.5,N
1570937815.7,286047002.5,N
1570937835.6,286047002.1,N
1570937855.4,286047000.1,N
1570937875.2,286046999.8,N
1570937895.1,286046998.7,N
1570937896.0,286046998.7,N
1570937915.8,286046998.5,N
1570937935.7,286047000.2,N
1570937955.5,286047000.0,N
1570937975.3,286047000.5,N
1570937995.2,286047002.4,N
1570938015.9,286047002.3,N
1570938035.7,286047000.5,N
1570938055.6,286047002.8,N
1570938075.4,286047001.4,N
1570938095.3,286047001.9,N
1570938115.1,286047002.5,N
1570938116.0,286047002.5,N
1570938135.8,286047002.0,N
1570938155.7,286047000.1,N
1570938175.5,286047000.0,N
1570938195.3,286047002.5,N
1570938215.2,286047000.2,N
1570938235.0,286047000.9,N
1570938235.9,286047000.9,N
1570938255.8,286047001.0,N
1570938275.6,286047000.6,N
1570938295.4,286047002.6,N
1570938315.3,286047003.5,N
1570938335.1,286047005.9,Y
1570938355.9,286047002.7,P
1570938375.7,286047002.7,P
1570938395.5,286046998.1,N
1570938415.4,286046996.7,N
1570938435.2,286046996.6,N
1570938455.0,286046999.3,N
1570938455.9,286046999.3,N
1570938475.8,286046999.4,N
1570938495.6,286046998.5,N
1570938515.5,286047001.0,N
1570938535.3,286047002.0,N
1570938555.1,286047002.2,N
1570938575.9,286047000.9,N
1570938595.7,286047011.9,Y
1570938615.5,286047000.6,P
1570938635.4,286047001.1,P
1570938655.2,286047000.4,N
1570938675.1,286047001.0,N
1570938676.0,286047001.0,N
1570938695.8,286047000.3,N
1570938715.6,286047000.5,N
1570938735.5,286046999.4,N
1570938755.3,286046998.9,N
1570938775.2,286047000.6,N
1570938795.9,286047001.2,N
1570938815.7,286046996.9,Y
1570938835.6,286046997.1,P
1570938855.4,286046995.4,N
1570938875.2,286046996.9,N
1570938895.1,286046998.9,N
1570938896.0,286046998.9,N
1570938915.8,286046999.0,N
1570938935.7,286046999.6,N
1570938955.5,286046997.6,N
1570938975.3,286046997.1,N
1570939025.2,286046997.7,E
1570939035.1,286046996.6,N
1570939055.9,286046999.3,P
1570939075.7,286046996.7,N
1570939095.5,286046997.4,N
1570939115.4,286046994.9,Y
1570939135.2,286046999.0,P
1570939155.1,286046997.0,P
1570939156.0,286046997.0,P
1570939175.8,286046998.4,N
1570939195.6,286047002.4,N
